Location: Ku?niki
(51.4449°N, 17.8974°E)
Time: 14:51:55
(UTC+00:00)

X-37B - Visible Passes

Search period start: 24 January 2022 00:00
Search period end: 03 February 2022 00:00
Orbit: 334 x 337 km, 45.0° (Epoch: 11 January)

Date Brightness Start Highest point End Pass type
(mag) Time Alt. Az. Time Alt. Az. Time Alt. Az.
28 Jan 3.4 17:59:25 10° SSW 17:59:29 10° SSW 17:59:29 10° SSW visible
29 Jan 2.9 16:45:57 10° S 16:46:40 11° SSE 16:47:23 10° SE visible
30 Jan 2.5 17:04:51 10° SSW 17:06:46 16° SSE 17:07:32 15° SE visible
31 Jan 2.1 17:24:40 10° SW 17:26:55 21° S 17:27:08 21° SSE visible
01 Feb 2.7 16:10:18 10° SSW 16:12:11 16° SSE 16:14:05 10° ESE visible
01 Feb 2.3 17:44:49 10° WSW 17:46:43 21° SSW 17:46:43 21° SSW visible
02 Feb 2.3 16:30:07 10° SW 16:32:21 21° S 16:34:36 10° ESE visible
02 Feb 3.0 18:05:10 10° WSW 18:06:20 16° SW 18:06:20 16° SW visible
